• Currently

    Reported at Minneapolis, Minneapolis-St. Paul International Airport, MN
    3:53 AM CST SUN MAR 26 2017
  • 37°F3°C
  • Drizzle
    Drizzle
  • Feels Like:33°F0°CDew Point:34°F1°CHumidity:87% Winds:E 7 mph 11 kph
    Pressure:29.94 in1014 hPaVisibility:7.00 miles11263.00 meters
Time Weather Temp Dew Point
Humidity Winds Visibility Pressure Precipitation
1 hr 24 hr
Wednesday, March 22
23:53 23:53 Clear Clear 25°F-4°C 5°F-15°C 42% NNE 6 mphNNE 9 kph 10.0 miles16.1 km 30.53 in1034 hPa 0.00 in0.00 mm --
22:53 22:53 Clear Clear 27°F-3°C 5°F-15°C 39% NNE 7 mphNNE 11 kph 10.0 miles16.1 km 30.53 in1034 hPa 0.00 in0.00 mm --
21:53 21:53 Clear Clear 28°F-2°C 4°F-16°C 35% N 10 mphN 17 kph 10.0 miles16.1 km 30.53 in1034 hPa 0.00 in0.00 mm --
20:53 20:53 Mostly Clear Mostly Clear 29°F-2°C 5°F-15°C 36% N 9 mphN 15 kph 10.0 miles16.1 km 30.5 in1033 hPa 0.00 in0.00 mm --
19:53 19:53 Mostly Clear Mostly Clear 31°F-1°C 6°F-14°C 35% N 9 mphN 15 kph 10.0 miles16.1 km 30.48 in1032 hPa 0.00 in0.00 mm --
18:53 18:53 Mostly Sunny Mostly Sunny 32°F0°C 5°F-15°C 32% NNE 13 mphNNE 20 kph 10.0 miles16.1 km 30.45 in1031 hPa 0.00 in0.00 mm --
17:53 17:53 Sunny Sunny 34°F1°C 5°F-15°C 29% N 18 mphN 30 kph 10.0 miles16.1 km 30.42 in1030 hPa 0.00 in0.00 mm --
16:53 16:53 Sunny Sunny 35°F2°C 3°F-16°C 26% N 14 mphN 22 kph 10.0 miles16.1 km 30.42 in1030 hPa 0.00 in0.00 mm --
15:53 15:53 Sunny Sunny 37°F3°C 5°F-15°C 26% NNW 15 mphNNW 24 kph 10.0 miles16.1 km 30.42 in1030 hPa 0.00 in0.00 mm --
14:53 14:53 Sunny Sunny 37°F3°C 7°F-14°C 28% N 15 mphN 24 kph 10.0 miles16.1 km 30.42 in1030 hPa 0.00 in0.00 mm --
13:53 13:53 Sunny Sunny 35°F2°C 4°F-16°C 27% N 12 mphN 19 kph 10.0 miles16.1 km 30.42 in1030 hPa 0.00 in0.00 mm --
12:53 12:53 Sunny Sunny 33°F1°C 4°F-16°C 29% NNW 17 mphNNW 28 kph 10.0 miles16.1 km 30.42 in1030 hPa 0.00 in0.00 mm --
11:53 11:53 Mostly Sunny Mostly Sunny 33°F1°C 8°F-13°C 35% N 13 mphN 20 kph 10.0 miles16.1 km 30.42 in1030 hPa 0.00 in0.00 mm --
10:53 10:53 Partly Cloudy Partly Cloudy 31°F-1°C 7°F-14°C 36% NNW 14 mphNNW 22 kph 10.0 miles16.1 km 30.42 in1030 hPa 0.00 in0.00 mm --
09:53 09:53 Mostly Cloudy Mostly Cloudy 28°F-2°C 8°F-13°C 43% NNW 13 mphNNW 20 kph 10.0 miles16.1 km 30.42 in1030 hPa 0.00 in0.00 mm --
08:53 08:53 Mostly Cloudy Mostly Cloudy 28°F-2°C 10°F-12°C 47% NNW 15 mphNNW 24 kph 10.0 miles16.1 km 30.39 in1029 hPa 0.00 in0.00 mm --
07:53 07:53 Mostly Cloudy Mostly Cloudy 28°F-2°C 11°F-12°C 49% N 20 mphN 31 kph 10.0 miles16.1 km 30.36 in1028 hPa 0.00 in0.00 mm --
06:53 06:53 Mostly Cloudy Mostly Cloudy 30°F-1°C 17°F-8°C 58% N 17 mphN 28 kph 10.0 miles16.1 km 30.33 in1027 hPa 0.00 in0.00 mm --
05:53 05:53 Mostly Cloudy Mostly Cloudy 33°F1°C 21°F-6°C 61% NNW 20 mphNNW 31 kph 10.0 miles16.1 km 30.3 in1026 hPa 0.00 in0.00 mm --
04:53 04:53 Clear Clear 36°F2°C 22°F-6°C 57% NNW 14 mphNNW 22 kph 10.0 miles16.1 km 30.27 in1025 hPa 0.00 in0.00 mm --
03:53 03:53 Clear Clear 37°F3°C 21°F-6°C 52% NNW 15 mphNNW 24 kph 10.0 miles16.1 km 30.24 in1024 hPa 0.00 in0.00 mm --
02:53 02:53 Clear Clear 39°F4°C 20°F-7°C 46% NW 12 mphNW 19 kph 10.0 miles16.1 km 30.24 in1024 hPa 0.00 in0.00 mm --
01:53 01:53 Clear Clear 40°F4°C 19°F-7°C 43% NW 10 mphNW 17 kph 10.0 miles16.1 km 30.21 in1023 hPa 0.00 in0.00 mm --
00:53 00:53 Clear Clear 39°F4°C 17°F-8°C 41% WNW 8 mphWNW 13 kph 10.0 miles16.1 km 30.21 in1023 hPa 0.00 in0.00 mm --